This is the latest recevied weather packets stored in our database for station/object WX9WTF. If no packets are shown the sender has not sent any weather packets the latest 10 day(s).
| Time | Temp. | Humidity | Pressure | Rain* | Wind** | Luminosity | Snow |
|---|---|---|---|---|---|---|---|
| 1777626101 | 4.44° C | 88% | 1019.7 hPa | 0 mm | - | 0 W/m² | - |
| 1777625796 | 5° C | 86% | 1019.5 hPa | 0 mm | - | 0 W/m² | - |
| 1777625493 | 5° C | 85% | 1019.8 hPa | 0 mm | - | 0 W/m² | - |
| 1777625187 | 5.56° C | 84% | 1019.9 hPa | 0 mm | - | 0 W/m² | - |
| 1777624884 | 5.56° C | 83% | 1019.8 hPa | 0 mm | - | 0 W/m² | - |
| 1777624581 | 5.56° C | 83% | 1019.7 hPa | 0 mm | - | 0 W/m² | - |
| 1777624281 | 5.56° C | 83% | 1019.9 hPa | 0 mm | - | 0 W/m² | - |
| 1777623980 | 5.56° C | 84% | 1019.8 hPa | 0 mm | - | 0 W/m² | - |
| 1777623676 | 5.56° C | 83% | 1020 hPa | 0 mm | - | 0 W/m² | - |
| 1777623374 | 5.56° C | 82% | 1019.7 hPa | 0 mm | - | 0 W/m² | - |
| 1777623070 | 6.11° C | 81% | 1020 hPa | 0 mm | - | 0 W/m² | - |
| 1777622768 | 6.11° C | 79% | 1020 hPa | 0 mm | - | 0 W/m² | - |
| 1777622463 | 6.67° C | 76% | 1020.2 hPa | 0 mm | - | 0 W/m² | - |
| 1777622160 | 6.67° C | 75% | 1020.1 hPa | 0 mm | - | 0 W/m² | - |
| 1777621856 | 6.67° C | 75% | 1020.2 hPa | 0 mm | - | 0 W/m² | - |
| 1777621552 | 7.22° C | 74% | 1020.2 hPa | 0 mm | - | 0 W/m² | - |
| 1777621249 | 7.22° C | 74% | 1020.2 hPa | 0 mm | - | 0 W/m² | - |
| 1777620945 | 7.22° C | 74% | 1020.3 hPa | 0 mm | - | 0 W/m² | - |
| 1777620641 | 7.22° C | 73% | 1020.3 hPa | 0 mm | - | 0 W/m² | - |
| 1777620337 | 7.22° C | 73% | 1020.2 hPa | 0 mm | - | 0 W/m² | - |
| 1777620035 | 7.22° C | 73% | 1020.1 hPa | 0 mm | - | 0 W/m² | - |
| 1777619731 | 7.78° C | 73% | 1020.1 hPa | 0 mm | - | 0 W/m² | - |
| 1777619426 | 7.22° C | 74% | 1020.1 hPa | 0 mm | - | 0 W/m² | - |
| 1777619126 | 7.22° C | 75% | 1020 hPa | 0 mm | - | 0 W/m² | - |
| 1777618821 | 7.22° C | 76% | 1020.3 hPa | 0 mm | - | 0 W/m² | - |
* Rain latest hour (hover to see other rain measurements)
** Current wind speed in m/s (hover to see current wind gust speed)